Regional Weather Roundup
Issued by NWS Green Bay, WI

Home | Current Version | Previous Version | Text Only | Print | Product List | Glossary On
Versions: 1 2 3 4 5 6 7 8 9 10 11 12 13 14 15 16 17 18 19 20 21 22 23 24 25 26 27 28 29 30 31 32 33 34 35 36 37 38 39 40 41 42 43 44 45 46 47 48 49 50
000
ASUS43 KGRB 271211
RWRGRB

NORTH-CENTRAL AND NORTHEAST WISCONSIN REGIONAL WEATHER ROUNDUP
NATIONAL WEATHER SERVICE GREEN BAY WI
600 AM CST MON FEB 27 2017

WIZ005-009-010>012-018-019-271300-
NORTH CENTRAL WISCONSIN

CITY           SKY/WX    TMP DP  RH WIND       PRES   REMARKS
IRONWOOD       CLOUDY    13   6  74 CALM      29.98S
MANITOWISH WTR FLURRIES  10   8  94 CALM      29.97R
ARBOR VITAE    LGT SNOW  17  11  77 SE3         N/A
EAGLE RIVER    CLOUDY     9   5  84 CALM      29.98S
LAND O LAKES   CLOUDY     3   0  85 CALM      29.99S
RHINELANDER    CLOUDY   N/A N/A N/A E3        29.98F
PHILLIPS       CLOUDY    20  13  73 CALM      29.96S
ANTIGO         CLOUDY    19  11  73 SE10      30.02R WCI   7
TOMAHAWK       CLOUDY    17  12  80 CALM      29.99S
MERRILL        NOT AVBL
$$

WIZ013-073-271300-
NORTHEAST WISCONSIN

CITY           SKY/WX    TMP DP  RH WIND       PRES   REMARKS
IRON MOUNTAIN  CLOUDY     4  -1  80 CALM      30.03R
MARINETTE      CLOUDY    18  13  80 CALM      30.10S
OCONTO         PTCLDY    15  11  84 CALM      30.09S
$$

WIZ017-030-035>037-045-271300-
CENTRAL WISCONSIN

CITY           SKY/WX    TMP DP  RH WIND       PRES   REMARKS
MEDFORD        MOCLDY    22  18  85 SE7       29.98R
WAUSAU         CLOUDY    22  19  89 SE6       30.01S
MOSINEE        MOCLDY    21  21 100 E3        30.03S
MARSHFIELD     CLOUDY    22  20  92 S6        30.00R
WISC RAPIDS    PTCLDY    21  19  92 S5        30.05R
STEVENS POINT  CLOUDY    22  21  94 S3        30.04S
WAUPACA        MOCLDY    21  18  90 CALM      30.07S
SHAWANO        CLOUDY    24  16  70 CALM      30.09R
CLINTONVILLE   CLOUDY    23  19  86 E3        30.08R
WAUTOMA        CLEAR     15  12  88 CALM      30.08R
$$

WIZ038-039-048-051-271300-
FOX VALLEY

CITY           SKY/WX    TMP DP  RH WIND       PRES   REMARKS
NWS GREEN BAY  PTCLDY    22  17  81 CALM      30.09R
APPLETON       MOCLDY    21  18  86 VRB3      30.05S
OSHKOSH        CLEAR     20  16  84 S6        30.07S
FOND DU LAC    CLEAR     23  17  78 S5        30.08S
$$

WIZ022-050-052-271300-
EAST CENTRAL WISCONSIN

CITY           SKY/WX    TMP DP  RH WIND       PRES   REMARKS
EPHRAIM        FAIR      20  11  67 CALM      30.08F
WASHINGTON ISL FAIR      11   8  87 CALM      30.09S
STURGEON BAY   CLEAR     19  13  77 MISG      30.10S
MANITOWOC      PTCLDY    19  17  92 CALM      30.10S
SHEBOYGAN      CLEAR     21  18  88 CALM      30.09S
$$

LMZ563-521-522-541>543-271300-
LAKESHORE

STATION/POSITION TIME  TEMP    WIND        PRES    VSBY  WAVE
                       AIR SEA DIR/SP/G                  HT/PER
                 (UTC) (F)     (DEG/KT/KT) (MB)    (MI)  (FT/S)
SHEBOYGAN LKSHOR 1200   29     210/  3/  4 1019.9R
KEWAUNEE LKSHORE 1148   28     110/  5/  9 1018.4S
NORTHPORT PIER   1140   18        CALM     1019.3R
SISTER BAY LKSHO 1135   18        CALM       N/A
CHAMBERS ISLAND  1140   17        CALM     1018.6S
MENOMINEE LKSHOR 1148   26      80/  4/  6 1018.2F
$$



USA.gov is the U.S. government's official web portal to all federal, state and local government web resources and services.